Notices

What's New in latest Release from April 7th, 2021:

- Updated Glossary, including Speed of Maximum Gust, and Total Hourly Precipitation

- Updated national and regional climate services offices contacts and prices information

- Addition of station inventory lists for 1981-2010, 1971-2000, and 1961-1990 Normals.

If you haven't already, please take our survey and provide feedback about our website: https://eccc.sondage-survey.ca/f/LanguageSelection.aspx?s=442ca660-fcf1-47c0-95a9-59707d6fd709

Hourly Data Report for March 26, 2020

MIRAMICHI RCS
NEW BRUNSWICK
Current Station Operator: ECCC - MSC

47°00'34.000" N
65°27'54.000" W
33.00 m
8100989
71744
ACQ

Download Data

Hourly Data (March 2020)
Hourly Data Report for March 26, 2020
TIME
LST
Temp Definition
°C
Dew Point Definition
°C
Rel Hum Definition
%
Precip. Amount Definition
mm

Wind Dir Definition
10's deg

Wind Spd Definition
km/h
Visibility Definition
km
Stn Press Definition
kPa
Hmdx Definition


Wind Chill Definition


Weather Definition


00:00 -2.9 -7.9 69 LegendMM 15 3   101.89   -4 LegendNANA
01:00 -2.1 -7.6 66 LegendMM 9 5   101.87   -4 LegendNANA
02:00 -4.1 -7.3 78 LegendMM 1 2   101.83   -5 LegendNANA
03:00 -3.0 -6.5 76 LegendMM 4 6   101.75   -5 LegendNANA
04:00 -2.8 -5.9 79 LegendMM 4 8   101.72   -6 LegendNANA
05:00 -4.0 -6.5 82 LegendMM 5 4   101.72   -6 LegendNANA
06:00 -2.8 -5.0 85 LegendMM 2 7   101.72   -6 LegendNANA
07:00 -2.8 -5.2 84 LegendMM 4 8   101.74   -6 LegendNANA
08:00 -3.3 -5.2 86 LegendMM 7 6   101.72   -6 LegendNANA
09:00 -0.9 -4.7 75 LegendMM 6 6   101.69   -3 LegendNANA
10:00 1.3 -5.3 62 LegendMM 7 5   101.62     LegendNANA
11:00 1.6 -5.1 61 LegendMM 4 12   101.56     LegendNANA
12:00 2.2 -5.1 59 LegendMM 6 14   101.45     LegendNANA
13:00 2.0 -4.8 61 LegendMM 5 17   101.38     LegendNANA
14:00 1.5 -4.7 63 LegendMM 6 20   101.27     LegendNANA
15:00 1.4 -4.3 66 LegendMM 6 19   101.17     LegendNANA
16:00 1.2 -3.6 70 LegendMM 6 15   101.09     LegendNANA
17:00 0.0 -3.7 76 LegendMM 5 18   101.02   -5 LegendNANA
18:00 -0.6 -3.9 78 LegendMM 5 15   100.96   -5 LegendNANA
19:00 -0.9 -3.8 81 LegendMM 6 15   100.89   -6 LegendNANA
20:00 -0.6 -4.5 75 LegendMM 4 8   100.86   -3 LegendNANA
21:00 -1.2 -3.8 83 LegendMM 4 11   100.75   -5 LegendNANA
22:00 -1.1 -4.3 78 LegendMM 5 14   100.66   -6 LegendNANA
23:00 -1.0 -4.2 79 LegendMM 4 12   100.57   -5 LegendNANA

Notes on Data Quality.

Legend

  • E = Estimated
  • M = Missing
  • NA = Not Available*
  • [empty] = Indicates an unobserved value
Date modified: